Lusaka, Zambia

10:07 PM CAT on June 28, 2017 (GMT +0200)
Lusaka

Weather History for FLLS - October, 2012

Change the Weather History Date:

Saturday, October 6, 2012

  Actual Average Record
Temperature  
Mean Temperature 78 °F -  
Max Temperature 93 °F 86 °F 95 °F (2000)
Min Temperature 64 °F 65 °F 54 °F (2014)
Cooling Degree Days 14    
Growing Degree Days 28 (Base 50)    
Moisture  
Dew Point 41 °F    
Average Humidity 26    
Maximum Humidity 49    
Minimum Humidity 11    
Precipitation  
Precipitation 0.00 in 0.04 in - ()
Sea Level Pressure  
Sea Level Pressure 30.06 in    
Wind  
Wind Speed 5 mph ()    
Max Wind Speed 13 mph    
Max Gust Speed -    
Visibility 5.3 miles    
Events      
Averages and records for this station are not official NWS values.
T = Trace of Precipitation, MM = Missing Value Source: Averaged Metar Reports

Daily Weather History Graph

Daily Weather History Graph

Search for Another Location

Airport or City:

Trip Planner

Search our weather history database for the weather conditions in past years. The results will help you decide how hot, cold, wet, or windy it might be!

Date:

Astronomy

Oct. 06, 2012 Rise Set
Actual Time 5:45 AM CAT 6:03 PM CAT
Civil Twilight 5:23 AM CAT 6:25 PM CAT
Nautical Twilight 4:58 AM CAT 6:50 PM CAT
Astronomical Twilight 4:33 AM CAT 7:15 PM CAT
Moon 11:19 PM CAT (10/6) 10:04 AM CAT (10/6)
Length of Visible Light 13h 01m
Length of Day
12h 18m
Waning Gibbous, 68% of the Moon is Illuminated
Oct 6
Waning Gibbous
Oct 8
Last Quarter
Oct 15
New
Oct 22
First Quarter
Oct 29
Full

Hourly Weather History & Observations

Time (CAT) Temp. Dew Point Humidity Pressure Visibility Wind Dir Wind Speed Gust Speed Precip Events Conditions
12:00 AM 73.4 °F 37.4 °F 27% 30.04 in - ENE 3.5 mph - N/A   Clear
1:00 AM 69.8 °F 39.2 °F 33% 30.04 in - SSE 2.3 mph - N/A   Clear
2:00 AM 68.0 °F 42.8 °F 40% 30.04 in - Calm Calm - N/A   Clear
6:00 AM 64.4 °F 44.6 °F 49% 30.09 in 4.3 mi SE 2.3 mph - N/A   Haze
7:00 AM 68.0 °F 46.4 °F 46% 30.12 in 5.0 mi SE 3.5 mph - N/A   Haze
8:00 AM 77 °F 45 °F 21%  in 5 mi ENE 3.5 mph - -   Haze
8:00 AM 77.0 °F 44.6 °F 32% 30.27 in 5.0 mi ENE 3.5 mph - N/A   Haze
9:00 AM 80.6 °F 46.4 °F 30% 30.12 in 5.6 mi ENE 11.5 mph - N/A   Haze
10:00 AM 82.4 °F 44.6 °F 26% 30.12 in - East 6.9 mph - N/A   Clear
11:00 AM 84.2 °F 44.6 °F 25% 30.12 in - ENE 12.7 mph - N/A   Clear
12:00 PM 86.0 °F 42.8 °F 22% 30.09 in - ENE 10.4 mph - N/A   Clear
1:00 PM 89.6 °F 44.6 °F 21% 30.04 in - NNE 6.9 mph - N/A   Clear
2:00 PM 90 °F 42 °F 11%  in 6 mi ENE 6.9 mph - -   Haze
2:00 PM 89.6 °F 42.8 °F 20% 30.01 in 5.6 mi ENE 6.9 mph - N/A   Haze
3:00 PM 91.4 °F 37.4 °F 15% 30.01 in 5.6 mi ENE 9.2 mph - N/A   Haze
4:00 PM 91.4 °F 35.6 °F 14% 29.98 in 5.6 mi ESE 10.4 mph - N/A   Haze
5:00 PM 89.6 °F 35.6 °F 15% 29.98 in 5.6 mi ESE 8.1 mph - N/A   Haze
6:00 PM 86.0 °F 33.8 °F 15% 30.01 in 5.6 mi ESE 12.7 mph - N/A   Haze
7:00 PM 80.6 °F 35.6 °F 20% 30.04 in 5.0 mi SE 10.4 mph - N/A   Haze
8:00 PM 74 °F 39 °F 18%  in 5 mi SE 4.6 mph - -   Haze
8:00 PM 73.4 °F 39.2 °F 29% 30.04 in 5.0 mi SE 4.6 mph - N/A   Haze
9:00 PM 75.2 °F 39.2 °F 27% 30.06 in 5.6 mi ESE 3.5 mph - N/A   Haze
10:00 PM 71.6 °F 41.0 °F 33% 30.06 in 5.6 mi East 2.3 mph - N/A   Haze
11:00 PM 69.8 °F 46.4 °F 43% 30.06 in 5.6 mi ESE 2.3 mph - N/A   Haze